N2UGS-WX Weather Reports


time (UTC)temp
C
wind
direction
speed
KPH
gust
KPH
rain 1hr
cm
rain 24hr
cm
rain mn
cm
humidity
%
barometer
mb
20260507151002 11 321 11.3 14.5 0.00 0.00 0.00 47 1012.5
20260507145502 11 272 9.7 9.7 0.00 0.00 0.00 53 1012.5
20260507144402 11 267 6.4 11.3 0.00 0.00 0.00 54 1012.9
20260507143402 11 288 0.0 9.7 0.00 0.00 0.00 56 1012.9
20260507141902 11 224 3.2 6.4 0.00 0.00 0.00 57 1012.9
20260507140403 10 186 6.4 9.7 0.00 0.00 0.00 57 1012.9
20260507134903 10 260 3.2 9.7 0.00 0.00 0.00 63 1012.9
20260507133901 9 142 3.2 4.8 0.00 0.00 0.00 67 1013.2
20260507132503 7 138 1.6 4.8 0.00 0.00 0.00 67 1013.2
20260507131402 6 44 1.6 6.4 0.00 0.00 0.00 75 1013.2
20260507130002 5 2 0.0 6.4 0.00 0.00 0.00 90 1013.2
20260507124502 5 57 0.0 3.2 0.00 0.00 0.00 97 1013.5
20260507123002 4 61 0.0 6.4 0.00 0.00 0.00 99 1013.2
20260507121403 5 79 3.2 4.8 0.00 0.00 0.00 99 1013.2
20260507115902 5 51 0.0 1.6 0.00 0.00 0.00 99 1013.5
20260507114402 4 359 0.0 0.0 0.00 0.00 0.00 99 1013.5
20260507112902 4 310 0.0 4.8 0.00 0.00 0.00 99 1013.5
20260507111402 4 337 0.0 0.0 0.00 0.00 0.00 99 1013.2
20260507110402 3 344 0.0 0.0 0.00 0.00 0.00 99 1012.9
20260507104902 3 338 0.0 0.0 0.00 0.00 0.00 99 1012.5
20260507103501 3 340 0.0 0.0 0.00 0.00 0.00 99 1012.9
20260507102403 3 242 0.0 0.0 0.00 0.00 0.00 99 1012.5
20260507101402 3 128 0.0 0.0 0.00 0.00 0.00 99 1012.5
20260507095902 2 292 0.0 0.0 0.00 0.00 0.00 98 1012.5
20260507094502 2 11 0.0 0.0 0.00 0.00 0.00 98 1012.5
20260507093002 2 337 0.0 0.0 0.00 0.00 0.00 98 1012.5
20260507091503 2 293 0.0 0.0 0.00 0.00 0.00 98 1012.5
20260507090003 2 344 0.0 0.0 0.00 0.00 0.00 98 1012.5
20260507084902 2 341 0.0 0.0 0.00 0.00 0.00 97 1012.5
20260507083402 2 303 0.0 0.0 0.00 0.00 0.00 97 1012.5
20260507082401 3 349 0.0 0.0 0.00 0.00 0.00 97 1012.5
20260507080902 3 223 0.0 0.0 0.00 0.00 0.00 97 1012.5
20260507075502 3 279 0.0 0.0 0.00 0.00 0.00 97 1012.5
20260507074402 3 317 0.0 0.0 0.00 0.00 0.00 97 1012.5
20260507073401 3 300 0.0 0.0 0.00 0.00 0.00 97 1012.5
20260507072002 2 276 0.0 0.0 0.00 0.00 0.00 96 1012.5
20260507070502 3 2 0.0 0.0 0.00 0.00 0.00 96 1012.5
20260507065402 3 15 0.0 0.0 0.00 0.00 0.00 96 1012.5
20260507064003 3 281 0.0 0.0 0.00 0.00 0.00 95 1012.9
20260507062502 4 272 0.0 0.0 0.00 0.00 0.00 95 1012.9
20260507060902 4 313 0.0 0.0 0.00 0.00 0.00 95 1012.9
20260507055502 5 230 0.0 0.0 0.00 0.00 0.00 95 1012.9
20260507054002 5 342 0.0 0.0 0.00 0.00 0.00 94 1013.2
20260507052402 5 10 0.0 0.0 0.00 0.00 0.00 94 1013.2
20260507051002 5 285 0.0 0.0 0.00 0.00 0.00 93 1013.5
20260507050002 5 32 0.0 0.0 0.00 0.00 0.00 93 1013.5
20260507044501 5 329 0.0 0.0 0.00 0.00 0.00 93 1013.5
20260507043003 6 292 0.0 0.0 0.00 0.00 0.00 93 1013.5
20260507041502 6 284 0.0 3.2 0.00 0.00 0.00 93 1013.5
20260507040002 6 302 0.0 0.0 0.00 0.00 0.00 93 1013.5
20260507035502 6 274 0.0 3.2 0.00 0.00 1.30 93 1013.2
20260507034002 6 235 0.0 1.6 0.00 0.00 1.30 93 1013.5
20260507032503 6 295 0.0 0.0 0.00 0.00 1.30 93 1013.2
20260507031003 6 271 3.2 3.2 0.00 0.00 1.30 93 1013.5
20260507025502 6 190 1.6 1.6 0.00 0.00 1.30 93 1013.5
20260507023902 6 312 0.0 0.0 0.00 0.00 1.30 93 1013.2
20260507022402 6 265 0.0 0.0 0.00 0.00 1.30 93 1013.2
20260507020902 6 302 0.0 0.0 0.00 0.00 1.30 93 1013.5
20260507015402 6 338 0.0 0.0 0.00 0.00 1.30 93 1013.9
20260507013902 6 297 0.0 0.0 0.00 0.00 1.30 92 1013.5
20260507012402 6 282 0.0 0.0 0.00 0.00 1.30 92 1013.5
20260507011002 6 305 0.0 0.0 0.00 0.00 1.30 91 1013.5
20260507005401 6 301 0.0 0.0 0.00 0.00 1.30 91 1013.2
20260507004001 6 285 0.0 0.0 0.00 0.00 1.30 91 1013.2
20260507002403 6 216 0.0 0.0 0.00 0.00 1.30 90 1012.9
20260507000902 6 1 0.0 0.0 0.00 0.00 1.30 90 1012.9
20260506235901 6 53 3.2 4.8 0.00 0.00 1.30 90 1012.5
20260506234502 6 63 0.0 4.8 0.00 0.00 1.30 90 1012.9
20260506232902 6 30 3.2 4.8 0.00 0.00 1.30 91 1012.5
20260506231502 6 320 4.8 8.0 0.00 0.00 1.30 91 1012.5
20260506230401 6 31 6.4 9.7 0.00 0.00 1.30 92 1012.5
20260506224902 6 92 3.2 4.8 0.00 0.00 1.30 93 1012.2
20260506223402 6 334 6.4 8.0 0.00 0.00 1.30 94 1011.9
20260506221902 6 21 8.0 12.9 0.00 0.00 1.30 94 1011.9
20260506220402 6 323 3.2 11.3 0.00 0.00 1.30 95 1011.5
20260506215001 6 348 9.7 14.5 0.00 0.00 1.30 96 1011.5
20260506213902 6 351 6.4 16.1 0.00 0.00 1.30 95 1011.5
20260506212502 6 343 6.4 16.1 0.00 0.00 1.30 95 1011.2
20260506211501 6 300 8.0 17.7 0.00 0.00 1.30 94 1011.2
20260506210003 7 336 11.3 16.1 0.00 0.00 1.30 92 1010.8
20260506204902 8 2 19.3 19.3 0.00 0.00 1.30 88 1010.5
20260506203401 10 327 11.3 11.3 0.00 0.00 1.30 80 1010.5
20260506202002 11 264 9.7 14.5 0.00 0.00 1.30 77 1010.2
20260506200502 11 166 9.7 16.1 0.00 0.00 1.30 76 1010.2
20260506195402 11 328 4.8 14.5 0.00 0.00 1.30 76 1010.2
20260506194402 12 235 9.7 9.7 0.00 0.00 1.30 75 1010.2
20260506193002 11 240 8.0 11.3 0.00 0.00 1.30 81 1010.2
20260506191503 11 313 1.6 6.4 0.00 0.00 1.30 79 1010.2
20260506190003 12 313 0.0 3.2 0.00 0.00 1.30 74 1009.8
20260506184501 12 92 0.0 3.2 0.00 0.00 1.30 75 1009.8
20260506183002 12 94 3.2 4.8 0.00 0.00 1.30 79 1010.2
20260506181502 11 6 0.0 0.0 0.00 0.00 1.30 80 1010.2
20260506180501 11 26 0.0 1.6 0.00 0.00 1.30 79 1010.2
20260506175002 11 67 1.6 4.8 0.00 0.00 1.30 80 1010.2
20260506174001 11 28 0.0 0.0 0.00 0.00 1.30 81 1010.2
20260506172502 11 264 0.0 0.0 0.00 0.00 1.30 83 1010.2
20260506171501 11 235 1.6 3.2 0.00 0.00 1.30 87 1010.2
20260506170003 10 123 0.0 0.0 0.00 0.00 1.30 90 1010.2
20260506164502 9 48 0.0 6.4 0.00 0.00 1.30 91 1010.2
20260506163003 9 43 0.0 4.8 0.00 0.00 1.30 93 1009.8
20260506161502 9 28 0.0 4.8 0.00 0.00 1.30 93 1010.2
20260506160003 8 315 0.0 4.8 0.00 0.00 1.30 93 1010.2
20260506154502 9 12 0.0 0.0 0.00 0.00 1.30 95 1010.2
20260506153004 10 65 0.0 0.0 0.00 0.00 1.30 95 1009.8
20260506152001 10 11 0.0 3.2 0.03 0.00 1.30 97 1009.8